Regional Weather Roundup
Issued by NWS Sioux Falls, SD

Home | Current Version | Previous Version | Graphics & Text | Print | Product List | Glossary Off
Versions: 1 2 3 4 5 6 7 8 9 10 11 12 13 14 15 16 17 18 19 20 21 22 23 24 25 26 27 28 29 30 31 32 33 34 35 36 37 38 39 40 41 42 43 44 45 46 47 48 49 50

000
ASUS43 KFSD 241802
RWRFSD

WEATHER ROUNDUP FOR SE SOUTH DAKOTA/SW MINNESOTA/NW IOWA
NATIONAL WEATHER SERVICE SIOUX FALLS SD
100 PM CDT FRI APR 24 2015

NOTE: "FAIR" INDICATES FEW OR NO CLOUDS BELOW 12,000 FEET WITH NO
SIGNIFICANT WEATHER AND OR OBSTRUCTIONS TO VISIBILITY.


SDZ038>040-050-052>070-241900-
SOUTHEAST SOUTH DAKOTA

CITY           SKY/WX    TMP DP  RH WIND       PRES   REMARKS
BROOKINGS      CLOUDY    61  45  55 SE15      29.64F
CHAMBERLAIN    NOT AVBL
HURON          MOSUNNY   69  47  45 S10G17    29.55F
6HR MIN TEMP:  52; 6HR MAX TEMP:  70;

MADISON        FAIR      64  46  52 S20G25    29.61F
MITCHELL       MOSUNNY   68  48  48 S13       29.57F
6HR MIN TEMP:  53; 6HR MAX TEMP:  68;

SIOUX FALLS    CLOUDY    61  48  62 S15       29.62F
6HR MIN TEMP:  49; 6HR MAX TEMP:  62;

WINNER         FAIR      74  43  32 MISG      29.53F
YANKTON        MOSUNNY   72  50  46 S13G21    29.58F
$$

MNZ071-072-080-081-089-090-097-098-241900-
SOUTHWEST MINNESOTA

CITY           SKY/WX    TMP DP  RH WIND       PRES   REMARKS
FAIRMONT       CLOUDY    46  10  23 SE21G29   29.75F
JACKSON        CLOUDY    50  39  66 SE17G24   29.73F
LUVERNE        CLOUDY    55  45  67 S16       29.67F
MARSHALL       PTSUNNY   55  39  54 S20       29.69F
6HR MIN TEMP:  50; 6HR MAX TEMP:  55;

MONTEVIDEO     CLOUDY    50  45  81 S18G25    29.73F
REDWOOD FALLS  CLOUDY    52  41  66 SE22      29.73F
TRACY          CLOUDY    56  44  64 SE15G23   29.70R
WORTHINGTON    CLOUDY    48  41  76 SE16G22   29.70F
$$

IAZ001>003-012>014-020>022-031-032-NEZ013-014-SDZ071-241900-
NORTHWEST IOWA

CITY           SKY/WX    TMP DP  RH WIND       PRES   REMARKS
DENISON        CLOUDY    61  52  72 S16G23    29.68F
ESTHERVILLE    PTSUNNY   46  42  86 SE24G31   29.74F
LE MARS        PTSUNNY   64  54  68 S15G23    29.66F
SIOUX CITY     SUNNY     70  49  47 S13       29.65F
6HR MIN TEMP:  53; 6HR MAX TEMP:  71; 6HR PCP:  0.01;

SPENCER        LGT RAIN  48  43  82 SE20G28   29.70F
6HR MIN TEMP:  47; 6HR MAX TEMP:  49; 6HR PCP:  0.06;

$$

ABBREVIATIONS USED IN REMARKS
   TC - TEMPERATURE IN CELSIUS
  WCI - WIND CHILL INDEX
   HX - HEAT INDEX
  VSB - VISIBILITY



USA.gov is the U.S. government's official web portal to all federal, state and local government web resources and services.